"SCLK","SCET","ORBIT_NUMBER","ALTITUDE","LATITUDE_PLANEOGRAPHIC","LATITUDE_PLANETOCENTRIC","LOCAL_TRUE_SOLAR_TIME","WEST_LONGITUDE","X_SUN_DIR_DISTANCE","RHO_PRP_SUN_DISTANCE","SOLAR_ZENITH_ANGLE","ELECTRON_PLASMA_FREQUENCY","FPE_QUALITY","FPP_VERIFICATION","ELECTRON_PLASMA_DENSITY","ELECTRON_CYCLOTRON_PERIOD","FCP_QUALITY","B_MAGNITUDE"
"1/0366126754.50161",2014-12-08T13:52:38.743,13880,391.00,70.42,70.20,"17:07:54",75.63,-0.080,1.110,94.35,2.32e+02,2,,6.67e+02,1.25e+00,3,2.87e+01
"1/0366126762.20211",2014-12-08T13:52:46.286,13880,391.00,69.95,69.72,"17:51:34",75.44,-0.070,1.110,93.91,2.23e+02,2,,6.17e+02,1.20e+00,3,2.99e+01
"1/0366126769.55797",2014-12-08T13:52:53.829,13880,392.00,69.47,69.24,"18:32:57",75.26,-0.060,1.110,93.47,2.36e+02,2,,6.91e+02,1.18e+00,2,3.02e+01
"1/0366126777.25847",2014-12-08T13:53:01.372,13880,393.00,69.00,68.77,"19:14:19",75.08,-0.050,1.110,93.02,2.59e+02,2,,8.32e+02,1.17e+00,3,3.05e+01
"1/0366126784.61433",2014-12-08T13:53:08.915,13880,394.00,68.53,68.29,"19:51:07",74.92,-0.050,1.110,92.58,2.73e+02,2,,9.24e+02,1.17e+00,2,3.06e+01
"1/0366126792.31549",2014-12-08T13:53:16.459,13880,395.00,68.05,67.81,"20:27:54",74.76,-0.040,1.110,92.14,2.79e+02,2,,9.65e+02,1.15e+00,3,3.11e+01
"1/0366126800.01599",2014-12-08T13:53:24.002,13880,396.00,67.58,67.33,"21:02:24",74.61,-0.030,1.110,91.69,3.09e+02,2,,1.18e+03,1.20e+00,3,2.99e+01
"1/0366126807.37185",2014-12-08T13:53:31.545,13880,398.00,67.10,66.85,"21:34:37",74.47,-0.020,1.110,91.25,3.41e+02,2,,1.44e+03,1.18e+00,3,3.03e+01
"1/0366126815.07235",2014-12-08T13:53:39.088,13880,399.00,66.63,66.37,"22:04:32",74.34,-0.010,1.110,90.81,3.35e+02,2,,1.39e+03,1.24e+00,3,2.88e+01
"1/0366126822.42821",2014-12-08T13:53:46.631,13880,400.00,66.15,65.90,"22:34:27",74.21,-0.000,1.110,90.37,3.11e+02,2,,1.20e+03,1.15e+00,2,3.10e+01
"1/0366126830.12936",2014-12-08T13:53:54.175,13880,402.00,65.68,65.42,"23:02:04",74.09,0.010,1.110,89.93,3.31e+02,2,,1.36e+03,1.05e+00,3,3.39e+01
"1/0366126837.48522",2014-12-08T13:54:01.718,13880,404.00,65.21,64.94,"23:29:42",73.97,0.010,1.110,89.49,2.97e+02,2,,1.09e+03,1.06e+00,3,3.37e+01
"1/0366126845.18573",2014-12-08T13:54:09.261,13880,405.00,64.73,64.46,"23:55:02",73.86,0.020,1.110,89.05,3.07e+02,2,,1.17e+03,1.07e+00,3,3.33e+01
"1/0366126852.54159",2014-12-08T13:54:16.804,13880,407.00,64.26,63.99,"00:20:22",73.75,0.030,1.110,88.60,3.75e+02,2,,1.74e+03,9.74e-01,3,3.67e+01
"1/0366126860.24209",2014-12-08T13:54:24.347,13880,409.00,63.79,63.51,"00:43:24",73.65,0.040,1.110,88.16,4.11e+02,2,,2.09e+03,1.10e+00,2,3.25e+01
"1/0366126867.59860",2014-12-08T13:54:31.891,13880,411.00,63.31,63.04,"01:06:26",73.55,0.050,1.110,87.73,3.96e+02,2,,1.94e+03,1.18e+00,2,3.03e+01
"1/0366126875.29910",2014-12-08T13:54:39.434,13880,413.00,62.84,62.56,"01:27:11",73.46,0.060,1.110,87.29,2.66e+02,2,,8.77e+02,1.05e+00,3,3.39e+01
"1/0366126882.65496",2014-12-08T13:54:46.977,13880,416.00,62.37,62.09,"01:47:56",73.37,0.070,1.120,86.85,1.94e+02,2,,4.67e+02,1.00e+00,3,3.56e+01
"1/0366126890.35546",2014-12-08T13:54:54.520,13880,418.00,61.90,61.61,"02:08:41",73.28,0.080,1.120,86.41,1.40e+02,2,,2.43e+02,9.88e-01,3,3.61e+01
"1/0366126898.05596",2014-12-08T13:55:02.063,13880,420.00,61.43,61.14,"02:27:09",73.20,0.080,1.120,85.97,1.51e+02,2,,2.83e+02,1.09e+00,3,3.27e+01
"1/0366126905.41248",2014-12-08T13:55:09.607,13880,423.00,60.96,60.66,"02:45:36",73.12,0.090,1.120,85.53,1.39e+02,2,,2.40e+02,1.10e+00,2,3.26e+01
"1/0366126913.11298",2014-12-08T13:55:17.150,13880,426.00,60.49,60.19,"03:01:46",73.05,0.100,1.120,85.10,1.41e+02,2,,2.47e+02,1.11e+00,3,3.21e+01
"1/0366126920.46884",2014-12-08T13:55:24.693,13880,428.00,60.02,59.72,"03:17:56",72.98,0.110,1.120,84.66,1.88e+02,2,,4.38e+02,1.15e+00,3,3.12e+01
"1/0366126928.16934",2014-12-08T13:55:32.236,13880,431.00,59.55,59.25,"03:34:06",72.91,0.120,1.120,84.23,2.06e+02,2,,5.26e+02,1.16e+00,3,3.07e+01
"1/0366126935.52520",2014-12-08T13:55:39.779,13880,434.00,59.08,58.78,"03:50:16",72.84,0.130,1.120,83.79,2.01e+02,2,,5.01e+02,1.18e+00,3,3.02e+01
"1/0366126943.22635",2014-12-08T13:55:47.323,13880,437.00,58.61,58.31,"04:04:08",72.78,0.140,1.120,83.36,2.25e+02,2,,6.28e+02,,,
"1/0366126950.58221",2014-12-08T13:55:54.866,13880,440.00,58.15,57.84,"04:18:00",72.72,0.140,1.120,82.93,1.13e+02,2,,1.58e+02,1.10e+00,3,3.23e+01
"1/0366126958.28271",2014-12-08T13:56:02.409,13880,443.00,57.68,57.37,"04:31:53",72.66,0.150,1.120,82.49,9.80e+01,2,,1.19e+02,1.09e+00,3,3.28e+01
"1/0366126965.63858",2014-12-08T13:56:09.952,13880,446.00,57.21,56.90,"04:43:28",72.61,0.160,1.120,82.06,9.60e+01,2,,1.14e+02,1.07e+00,3,3.35e+01
"1/0366126973.33908",2014-12-08T13:56:17.495,13880,450.00,56.75,56.43,"04:57:20",72.55,0.170,1.110,81.63,1.13e+02,2,,1.58e+02,1.04e+00,3,3.44e+01
"1/0366126981.04023",2014-12-08T13:56:25.039,13880,453.00,56.28,55.97,"05:08:55",72.50,0.180,1.110,81.20,1.22e+02,2,,1.85e+02,1.02e+00,3,3.52e+01
"1/0366126988.39609",2014-12-08T13:56:32.582,13880,457.00,55.82,55.50,"05:20:30",72.45,0.190,1.110,80.77,1.39e+02,2,,2.40e+02,1.02e+00,3,3.50e+01
"1/0366126996.09659",2014-12-08T13:56:40.125,13880,460.00,55.36,55.04,"05:32:05",72.40,0.200,1.110,80.34,1.89e+02,2,,4.43e+02,1.41e+00,3,2.54e+01
"1/0366127003.45245",2014-12-08T13:56:47.668,13880,464.00,54.90,54.57,"05:41:22",72.36,0.200,1.110,79.91,1.48e+02,2,,2.72e+02,1.15e+00,2,3.10e+01
"1/0366127011.15295",2014-12-08T13:56:55.211,13880,468.00,54.43,54.11,"05:50:40",72.32,0.210,1.110,79.49,1.13e+02,2,,1.58e+02,1.12e+00,1,3.19e+01
"1/0366127018.50947",2014-12-08T13:57:02.755,13880,472.00,53.97,53.65,"06:02:14",72.27,0.220,1.110,79.06,8.70e+01,2,,9.39e+01,9.96e-01,3,3.59e+01
"1/0366127026.20997",2014-12-08T13:57:10.298,13880,476.00,53.51,53.19,"06:09:14",72.24,0.230,1.110,78.64,7.20e+01,2,,6.43e+01,9.76e-01,3,3.66e+01
"1/0366127033.56583",2014-12-08T13:57:17.841,13880,480.00,53.06,52.73,"06:18:32",72.20,0.240,1.110,78.21,6.30e+01,2,,4.92e+01,1.05e+00,1,3.41e+01
"1/0366127041.26633",2014-12-08T13:57:25.384,13880,484.00,52.60,52.27,"06:27:49",72.16,0.250,1.110,77.79,5.80e+01,2,,4.17e+01,1.04e+00,1,3.44e+01
"1/0366127048.62219",2014-12-08T13:57:32.927,13880,488.00,52.14,51.81,"06:34:49",72.13,0.260,1.110,77.37,7.50e+01,2,,6.98e+01,9.96e-01,1,3.59e+01
"1/0366127056.32334",2014-12-08T13:57:40.471,13880,492.00,51.68,51.35,"06:44:06",72.09,0.260,1.110,76.95,5.70e+01,2,,4.03e+01,9.91e-01,1,3.60e+01
"1/0366127064.02384",2014-12-08T13:57:48.014,13880,497.00,51.23,50.90,"06:51:06",72.06,0.270,1.110,76.53,5.00e+01,2,,3.10e+01,1.03e+00,1,3.47e+01
"1/0366127071.37970",2014-12-08T13:57:55.557,13880,501.00,50.77,50.44,"06:58:06",72.03,0.280,1.110,76.11,5.70e+01,2,,4.03e+01,1.03e+00,1,3.47e+01
"1/0366127079.08020",2014-12-08T13:58:03.100,13880,506.00,50.32,49.99,"07:05:06",72.00,0.290,1.110,75.69,6.40e+01,2,,5.08e+01,1.03e+00,1,3.47e+01
"1/0366127086.43607",2014-12-08T13:58:10.643,13880,510.00,49.87,49.53,"07:12:06",71.97,0.300,1.110,75.27,4.30e+01,1,,2.29e+01,1.00e+00,1,3.55e+01
"1/0366127094.13722",2014-12-08T13:58:18.187,13880,515.00,49.42,49.08,"07:19:06",71.94,0.310,1.110,74.86,7.50e+01,2,,6.98e+01,1.09e+00,1,3.28e+01
"1/0366127101.49308",2014-12-08T13:58:25.730,13880,520.00,48.97,48.63,"07:23:48",71.92,0.310,1.110,74.44,4.80e+01,1,,2.86e+01,1.10e+00,1,3.26e+01
"1/0366127109.19358",2014-12-08T13:58:33.273,13880,525.00,48.52,48.18,"07:30:48",71.89,0.320,1.100,74.03,,,,,1.01e+00,1,3.53e+01
"1/0366127116.54944",2014-12-08T13:58:40.816,13880,530.00,48.07,47.73,"07:35:30",71.87,0.330,1.100,73.62,,,,,1.04e+00,1,3.44e+01
"1/0366127131.60646",2014-12-08T13:58:55.903,13880,540.00,47.18,46.84,"07:44:55",71.83,0.350,1.100,72.80,,,,,1.13e+00,1,3.16e+01
"1/0366127139.30696",2014-12-08T13:59:03.446,13880,545.00,46.73,46.40,"07:49:37",71.81,0.360,1.100,72.39,,,,,1.14e+00,1,3.14e+01
"1/0366127147.00746",2014-12-08T13:59:10.989,13880,550.00,46.29,45.95,"07:54:20",71.79,0.360,1.100,71.98,,,,,1.12e+00,1,3.19e+01
"1/0366127154.36332",2014-12-08T13:59:18.532,13880,556.00,45.84,45.51,"07:59:02",71.77,0.370,1.100,71.57,,,,,1.08e+00,1,3.31e+01
"1/0366127162.06447",2014-12-08T13:59:26.076,13880,561.00,45.40,45.07,"08:03:44",71.75,0.380,1.100,71.17,,,,,1.12e+00,1,3.19e+01
"1/0366127169.42033",2014-12-08T13:59:33.619,13880,567.00,44.96,44.63,"08:08:27",71.73,0.390,1.100,70.76,,,,,1.19e+00,1,3.01e+01
"1/0366127177.12083",2014-12-08T13:59:41.162,13880,572.00,44.52,44.19,"08:10:52",71.72,0.400,1.100,70.36,,,,,1.12e+00,1,3.19e+01
"1/0366127184.47669",2014-12-08T13:59:48.705,13880,578.00,44.08,43.75,"08:15:34",71.70,0.410,1.090,69.96,,,,,1.07e+00,1,3.33e+01
"1/0366127192.17719",2014-12-08T13:59:56.248,13880,584.00,43.65,43.32,"08:17:59",71.69,0.410,1.090,69.56,,,,,1.02e+00,1,3.50e+01
"1/0366127199.53371",2014-12-08T14:00:03.792,13880,590.00,43.21,42.88,"08:22:41",71.67,0.420,1.090,69.16,,,,,9.71e-01,2,3.68e+01
"1/0366127207.23421",2014-12-08T14:00:11.335,13880,596.00,42.78,42.45,"08:25:06",71.66,0.430,1.090,68.76,,,,,1.05e+00,1,3.41e+01
"1/0366127214.59007",2014-12-08T14:00:18.878,13880,602.00,42.34,42.02,"08:27:31",71.65,0.440,1.090,68.37,,,,,9.13e-01,1,3.91e+01
"1/0366127222.29057",2014-12-08T14:00:26.421,13880,608.00,41.91,41.58,"08:29:56",71.64,0.450,1.090,67.97,,,,,9.88e-01,1,3.61e+01
"1/0366127229.64643",2014-12-08T14:00:33.964,13880,614.00,41.48,41.15,"08:32:21",71.63,0.460,1.090,67.58,,,,,9.46e-01,1,3.78e+01
"1/0366127237.34759",2014-12-08T14:00:41.508,13880,620.00,41.05,40.73,"08:34:45",71.62,0.460,1.080,67.19,,,,,9.80e-01,1,3.64e+01
"1/0366127245.04809",2014-12-08T14:00:49.051,13880,626.00,40.62,40.30,"08:37:10",71.61,0.470,1.080,66.80,,,,,1.06e+00,1,3.36e+01
"1/0366127252.40395",2014-12-08T14:00:56.594,13880,633.00,40.20,39.87,"08:39:35",71.60,0.480,1.080,66.41,,,,,1.03e+00,1,3.47e+01
"1/0366127260.10445",2014-12-08T14:01:04.137,13880,639.00,39.77,39.45,"08:42:00",71.59,0.490,1.080,66.02,,,,,9.30e-01,1,3.84e+01
"1/0366127267.46031",2014-12-08T14:01:11.680,13880,646.00,39.35,39.03,"08:44:25",71.58,0.500,1.080,65.64,,,,,9.96e-01,1,3.59e+01
"1/0366127275.16146",2014-12-08T14:01:19.224,13880,652.00,38.92,38.61,"08:44:32",71.58,0.500,1.080,65.25,,,,,1.00e+00,1,3.55e+01
"1/0366127282.51732",2014-12-08T14:01:26.767,13880,659.00,38.50,38.19,"08:46:57",71.57,0.510,1.080,64.87,,,,,9.38e-01,1,3.81e+01
"1/0366127290.21782",2014-12-08T14:01:34.310,13880,666.00,38.08,37.77,"08:47:04",71.57,0.520,1.070,64.49,,,,,9.46e-01,1,3.78e+01
"1/0366127320.33120",2014-12-08T14:02:04.483,13880,693.00,36.41,36.11,"08:52:09",71.55,0.550,1.070,62.98,,,,,1.07e+00,1,3.33e+01
"1/0366127328.03170",2014-12-08T14:02:12.026,13880,700.00,36.00,35.70,"08:54:33",71.54,0.560,1.070,62.60,,,,,1.10e+00,1,3.26e+01
"1/0366127335.38756",2014-12-08T14:02:19.569,13880,708.00,35.59,35.29,"08:54:41",71.54,0.570,1.060,62.23,,,,,9.38e-01,2,3.81e+01
"1/0366127343.08806",2014-12-08T14:02:27.112,13880,715.00,35.18,34.88,"08:54:48",71.54,0.580,1.060,61.86,,,,,9.96e-01,1,3.59e+01
"1/0366127350.44458",2014-12-08T14:02:34.656,13880,722.00,34.77,34.47,"08:54:56",71.54,0.580,1.060,61.49,,,,,1.04e+00,1,3.44e+01
"1/0366127358.14508",2014-12-08T14:02:42.199,13880,729.00,34.36,34.06,"08:55:03",71.54,0.590,1.060,61.12,,,,,9.63e-01,1,3.71e+01
"1/0366127365.50094",2014-12-08T14:02:49.742,13880,737.00,33.96,33.66,"08:57:28",71.53,0.600,1.060,60.76,,,,,1.05e+00,1,3.41e+01
"1/0366127380.55730",2014-12-08T14:03:04.828,13880,752.00,33.15,32.86,"08:57:42",71.53,0.610,1.050,60.03,,,,,1.10e+00,1,3.26e+01
"1/0366127395.61431",2014-12-08T14:03:19.915,13880,767.00,32.34,32.06,"08:57:57",71.53,0.630,1.050,59.31,,,,,1.14e+00,1,3.14e+01
"1/0366127403.31481",2014-12-08T14:03:27.458,13880,775.00,31.94,31.66,"08:55:47",71.54,0.640,1.050,58.95,,,,,1.11e+00,1,3.21e+01
"1/0366127411.01531",2014-12-08T14:03:35.001,13880,783.00,31.55,31.27,"08:55:54",71.54,0.640,1.050,58.59,,,,,1.22e+00,1,2.93e+01
"1/0366127418.37117",2014-12-08T14:03:42.544,13880,790.00,31.15,30.87,"08:56:02",71.54,0.650,1.040,58.24,,,,,1.23e+00,1,2.91e+01
"1/0366127426.07233",2014-12-08T14:03:50.088,13880,798.00,30.76,30.48,"08:56:09",71.54,0.660,1.040,57.89,,,,,1.07e+00,1,3.33e+01
"1/0366127433.42819",2014-12-08T14:03:57.631,13880,806.00,30.36,30.09,"08:56:16",71.54,0.670,1.040,57.53,,,,,1.19e+00,1,3.01e+01
"1/0366127441.12869",2014-12-08T14:04:05.174,13880,814.00,29.97,29.70,"08:54:06",71.55,0.680,1.040,57.19,,,,,1.15e+00,1,3.09e+01
"1/0366127448.48455",2014-12-08T14:04:12.717,13880,822.00,29.58,29.31,"08:54:13",71.55,0.680,1.040,56.84,,,,,1.12e+00,1,3.19e+01
"1/0366127463.54157",2014-12-08T14:04:27.804,13880,839.00,28.80,28.54,"08:52:11",71.56,0.700,1.030,56.15,,,,,1.15e+00,1,3.09e+01
"1/0366127471.24207",2014-12-08T14:04:35.347,13880,847.00,28.42,28.16,"08:52:18",71.56,0.710,1.030,55.80,,,,,1.03e+00,2,3.47e+01
"1/0366127486.29843",2014-12-08T14:04:50.433,13880,863.00,27.65,27.39,"08:50:15",71.57,0.720,1.020,55.12,,,,,1.04e+00,1,3.44e+01
"1/0366127493.65429",2014-12-08T14:04:57.976,13880,872.00,27.27,27.02,"08:50:22",71.57,0.730,1.020,54.78,,,,,1.00e+00,1,3.55e+01
"1/0366127501.35544",2014-12-08T14:05:05.520,13880,880.00,26.89,26.64,"08:48:12",71.58,0.740,1.020,54.45,,,,,9.80e-01,1,3.64e+01
"1/0366127509.05594",2014-12-08T14:05:13.063,13880,889.00,26.51,26.26,"08:48:20",71.58,0.740,1.020,54.11,,,,,1.03e+00,1,3.47e+01
"1/0366127516.41180",2014-12-08T14:05:20.606,13880,897.00,26.13,25.89,"08:46:09",71.59,0.750,1.020,53.78,,,,,9.88e-01,2,3.61e+01
"1/0366127531.46816",2014-12-08T14:05:35.692,13880,915.00,25.38,25.14,"08:44:07",71.60,0.760,1.010,53.12,,,,,1.08e+00,1,3.31e+01
"1/0366127539.16932",2014-12-08T14:05:43.236,13880,923.00,25.01,24.77,"08:41:56",71.61,0.770,1.010,52.79,,,,,1.12e+00,1,3.19e+01
"1/0366127546.52518",2014-12-08T14:05:50.779,13880,932.00,24.64,24.41,"08:42:04",71.61,0.780,1.010,52.47,,,,,1.16e+00,1,3.07e+01
"1/0366127614.45243",2014-12-08T14:06:58.668,13880,1013.00,21.36,21.16,"08:27:07",71.68,0.840,0.990,49.61,,,,,1.59e+00,1,2.24e+01
"1/0366127622.15293",2014-12-08T14:07:06.211,13880,1022.00,21.01,20.81,"08:24:57",71.69,0.850,0.980,49.30,,,,,1.61e+00,2,2.22e+01
"1/0366127629.50879",2014-12-08T14:07:13.754,13880,1032.00,20.65,20.46,"08:22:47",71.70,0.860,0.980,49.00,,,,,1.47e+00,1,2.43e+01
"1/0366127637.20929",2014-12-08T14:07:21.297,13880,1041.00,20.30,20.10,"08:20:37",71.71,0.860,0.980,48.69,,,,,1.47e+00,2,2.43e+01
"1/0366127644.56515",2014-12-08T14:07:28.840,13880,1050.00,19.95,19.76,"08:18:27",71.72,0.870,0.980,48.39,,,,,1.29e+00,1,2.77e+01
"1/0366127652.26631",2014-12-08T14:07:36.384,13880,1060.00,19.60,19.41,"08:16:16",71.73,0.880,0.970,48.09,,,,,1.15e+00,2,3.10e+01
"1/0366127659.62217",2014-12-08T14:07:43.927,13880,1069.00,19.25,19.06,"08:14:06",71.74,0.890,0.970,47.79,,,,,1.30e+00,2,2.75e+01
"1/0366127667.32267",2014-12-08T14:07:51.470,13880,1079.00,18.90,18.72,"08:11:56",71.75,0.890,0.970,47.49,,,,,1.53e+00,1,2.34e+01
"1/0366127675.02317",2014-12-08T14:07:59.013,13880,1088.00,18.55,18.38,"08:09:46",71.76,0.900,0.970,47.20,,,,,1.57e+00,2,2.28e+01
"1/0366127682.37969",2014-12-08T14:08:06.557,13880,1098.00,18.21,18.03,"08:07:36",71.77,0.910,0.960,46.90,,,,,1.50e+00,1,2.38e+01
"1/0366127697.43605",2014-12-08T14:08:21.643,13880,1117.00,17.52,17.36,"08:03:15",71.79,0.920,0.960,46.32,,,,,1.75e+00,1,2.04e+01
"1/0366127705.13655",2014-12-08T14:08:29.186,13880,1127.00,17.18,17.02,"08:01:05",71.80,0.930,0.960,46.03,,,,,1.87e+00,1,1.91e+01
"1/0366127712.49241",2014-12-08T14:08:36.729,13880,1137.00,16.84,16.68,"07:58:55",71.81,0.930,0.950,45.74,,,,,1.30e+00,1,2.74e+01
"1/0366127720.19356",2014-12-08T14:08:44.273,13880,1146.00,16.51,16.35,"07:56:45",71.82,0.940,0.950,45.46,,,,,1.27e+00,2,2.81e+01
"1/0366127727.54942",2014-12-08T14:08:51.816,13880,1156.00,16.17,16.02,"07:54:35",71.83,0.950,0.950,45.17,,,,,1.50e+00,2,2.37e+01
"1/0366127735.24992",2014-12-08T14:08:59.359,13880,1166.00,15.84,15.69,"07:52:24",71.84,0.950,0.950,44.89,,,,,1.36e+00,1,2.62e+01
"1/0366127742.60578",2014-12-08T14:09:06.902,13880,1176.00,15.50,15.36,"07:47:57",71.86,0.960,0.940,44.61,,,,,1.36e+00,2,2.62e+01
"1/0366127750.30628",2014-12-08T14:09:14.445,13880,1186.00,15.17,15.03,"07:45:47",71.87,0.970,0.940,44.33,,,,,1.32e+00,1,2.71e+01
"1/0366127758.00744",2014-12-08T14:09:21.989,13880,1196.00,14.84,14.70,"07:43:36",71.88,0.970,0.940,44.06,,,,,1.26e+00,1,2.83e+01
"1/0366127765.36330",2014-12-08T14:09:29.532,13880,1206.00,14.51,14.37,"07:41:26",71.89,0.980,0.940,43.78,,,,,1.35e+00,1,2.64e+01
"1/0366127780.41966",2014-12-08T14:09:44.618,13880,1226.00,13.86,13.73,"07:34:48",71.92,0.990,0.930,43.24,,,,,1.30e+00,2,2.75e+01
"1/0366127788.12016",2014-12-08T14:09:52.161,13880,1236.00,13.54,13.41,"07:32:38",71.93,1.000,0.930,42.97,,,,,1.86e+00,1,1.92e+01
"1/0366127795.47668",2014-12-08T14:09:59.705,13880,1246.00,13.21,13.09,"07:30:28",71.94,1.010,0.920,42.70,,,,,1.24e+00,1,2.89e+01
"1/0366127803.17718",2014-12-08T14:10:07.248,13880,1256.00,12.89,12.77,"07:28:18",71.95,1.010,0.920,42.44,,,,,1.59e+00,1,2.24e+01
"1/0366127810.53304",2014-12-08T14:10:14.791,13880,1266.00,12.57,12.45,"07:23:50",71.97,1.020,0.920,42.18,,,,,1.40e+00,1,2.55e+01
"1/0366127818.23354",2014-12-08T14:10:22.334,13880,1277.00,12.25,12.14,"07:21:40",71.98,1.030,0.920,41.91,,,,,1.35e+00,2,2.65e+01
"1/0366127825.58940",2014-12-08T14:10:29.877,13880,1287.00,11.94,11.82,"07:19:30",71.99,1.030,0.910,41.65,,,,,1.34e+00,1,2.67e+01
"1/0366127833.29055",2014-12-08T14:10:37.421,13880,1297.00,11.62,11.51,"07:17:20",72.00,1.040,0.910,41.39,,,,,1.78e+00,1,2.00e+01
"1/0366127840.64641",2014-12-08T14:10:44.964,13880,1308.00,11.31,11.20,"07:12:52",72.02,1.040,0.910,41.14,,,,,1.71e+00,1,2.09e+01
"1/0366127848.34691",2014-12-08T14:10:52.507,13880,1318.00,10.99,10.89,"07:10:42",72.03,1.050,0.910,40.88,,,,,1.57e+00,2,2.28e+01
"1/0366127856.04741",2014-12-08T14:11:00.050,13880,1328.00,10.68,10.58,"07:08:32",72.04,1.060,0.900,40.63,,,,,1.47e+00,1,2.43e+01
"1/0366127893.51665",2014-12-08T14:11:37.766,13880,1381.00,9.14,9.05,"06:53:06",72.11,1.090,0.890,39.39,,,,,1.36e+00,1,2.62e+01
"1/0366127901.21715",2014-12-08T14:11:45.309,13880,1391.00,8.84,8.75,"06:48:38",72.13,1.090,0.890,39.15,,,,,1.33e+00,1,2.69e+01
"1/0366127908.57367",2014-12-08T14:11:52.853,13880,1402.00,8.54,8.45,"06:46:28",72.14,1.100,0.890,38.91,,,,,1.20e+00,1,2.97e+01
"1/0366127939.03103",2014-12-08T14:12:23.025,13880,1444.00,7.34,7.27,"06:33:12",72.20,1.120,0.880,37.97,,,,,1.49e+00,1,2.40e+01
"1/0366127946.38754",2014-12-08T14:12:30.569,13880,1455.00,7.04,6.98,"06:31:02",72.21,1.130,0.870,37.74,,,,,2.05e+00,1,1.74e+01
"1/0366127969.14440",2014-12-08T14:12:53.198,13880,1487.00,6.16,6.11,"06:19:57",72.26,1.150,0.870,37.05,,,,,1.76e+00,1,2.03e+01
